Tracking 30101 objects as of 14-Dec-2024
HD Live streaming from Space Station
objects crossing your sky now

STARLINK 1060

Track STARLINK 1060 now!
10-day predictions
STARLINK 1060 is classified as:


NORAD ID: 44765
Int'l Code: 2019-074BE
Perigee: 552.8 km
Apogee: 555.8 km
Inclination: 53.1 °
Period: 95.6 minutes
Semi major axis: 6925 km
RCS: Unknown
Launch date: November 11, 2019
Source: United States (US)
Launch site: AIR FORCE EASTERN TEST RANGE (AFETR)
Your satellite tracking list
Your tracking list is empty




NASA's NSSDC Master Catalog

Two Line Element Set (TLE):
1 44765U 19074BE  24348.65103835  .00012138  00000-0  83220-3 0  9992
2 44765  53.0551  71.4093 0002184  68.0946 292.0275 15.06407064280650
Source of the keplerian elements: AFSPC